OpenBCM V1.13 (Linux)

Packet Radio Mailbox

DB0FHN

[JN59NK Nuernberg]

 Login: GUEST





  
LU9DCE > KEP      03.07.19 20:33l 246 Lines 12066 Bytes #999 (0) @ WW
BID : 28066_LU9DCE
Read: DJ6UX DF7EAV GUEST
Subj: TLE 03 07
Path: DB0FHN<DB0BLO<DB0ERF<DB0RES<SR4BBX<SR9ZAA<VE2PKT<N3HYM<LU9DCE
Sent: 190703/1800Z 28066@LU9DCE.TOR.BA.ARG.SOAM LinBPQ6.0.18

            __    _  _  ___  ____   ___  ____    ____  ____  ____
           (  )  / )( \/ _ \(    \ / __)(  __)  (  _ \(  _ \/ ___)
           / (_/\) \/ (\__  )) D (( (__  ) _)    ) _ ( ) _ (\___ \
           \____/\____/(___/(____/ \___)(____)  (____/(____/(____/
               ESTACION DE PACKET RADIO - BUENOS AIRES (GF05OM)
                   BOLETINES INFORMATIVOS PROGRAMADOS (BIP)
                  SLACKWARE LINUX - HELLOCODELINUX@GMAIL.COM

+----------------------------------------------------------------------------+
OSCAR 7
1  7530U 74089B   19184.15083632 -.00000051  00000-0 -37390-4 0  9998
2  7530 101.7445 151.6638 0011964 321.3635 105.3632 12.53638666 42331
OSCAR 11 (UoSAT 2)
1 14781U 84021B   19183.66607430 +.00000034 +00000-0 +10236-4 0  9993
2 14781 097.6098 207.7234 0006931 274.9212 085.1211 14.83092986879836
OSCAR 19 (LUSAT)
1 20442U 90005G   19183.84405395 -.00000031 +00000-0 +47399-5 0  9998
2 20442 098.6492 125.8207 0012875 106.0163 254.2440 14.32927841538342
EYESAT A
1 22825U 93061C   19183.84307507 -.00000029  00000-0  68547-5 0  9991
2 22825  98.9033 172.8031 0007745 324.3209  35.7454 14.30061421343977
ITAMSAT
1 22826U 93061D   19184.19119640 -.00000025  00000-0  84394-5 0  9994
2 22826  98.8974 173.1488 0008056 310.7122  49.3359 14.30395122344222
RADIO ROSTO
1 23439U 94085A   19183.79526626 -.00000042  00000-0  22786-4 0  9998
2 23439  64.8173  93.3182 0146170 110.4503 251.2183 11.27568228  9644
JAS 2
1 24278U 96046B   19184.04295565 -.00000016  00000-0  20187-4 0  9997
2 24278  98.5390 335.5080 0349960 202.6386 155.8989 13.53092481129745
TECHSAT 1B
1 25397U 98043D   19183.81625000 -.00000029 +00000-0 +63481-5 0  9993
2 25397 098.6891 123.7896 0001709 039.1302 320.9999 14.23667170089667
ISS (ZARYA)
1 25544U 98067A   19184.55709389 -.00000466  00000-0  00000+0 0  9995
2 25544  51.6421 280.0548 0007844 107.2531  30.6285 15.50944361177793
PCSAT
1 26931U 01043C   19184.46233380 -.00000044  00000-0  14880-4 0  9995
2 26931  67.0519 325.5644 0006895 278.0244  82.0075 14.30545981927083
SAUDISAT 1C
1 27607U 02058C   19184.11825631 -.00000046  00000-0  14482-4 0  9991
2 27607  64.5554   5.4893 0080890 253.7479 105.4713 14.75555812889160
CUTE-1
1 27844U 03031E   19184.49770740  .00000021  00000-0  28945-4 0  9998
2 27844  98.6833 192.4896 0009667 356.0496   4.0604 14.22183493830398
CUBESAT XI 4
1 27848U 03031J   19184.49406380  .00000018  00000-0  28119-4 0  9997
2 27848  98.6910 192.9892 0009803   7.4846 352.6476 14.21778040830247
MOZHAYETS 4
1 27939U 03042A   19184.51012787  .00000108  00000-0  27967-4 0  9997
2 27939  98.0429 320.0387 0013439  25.8122 334.3751 14.66788390842717
CUBESAT XI 5
1 28895U 05043F   19183.38591656  .00000043  00000-0  17068-4 0  9992
2 28895  97.9609 325.6488 0015651 311.6127  48.3734 14.63671470729487
CUTE-1.7+APD II
1 32785U 08021C   19183.80416670 +.00000124 +00000-0 +19020-4 0  9993
2 32785 097.5493 182.8529 0012167 210.2766 149.7750 14.88315496605711
DELFI C3
1 32789U 08021G   19184.09339250  .00001133  00000-0  79628-4 0  9998
2 32789  97.4631 233.3237 0013848  78.7181 281.5602 15.06973444609136
SEEDS
1 32791U 08021J   19183.73178719 +.00000094 +00000-0 +14867-4 0  9991
2 32791 097.5275 188.7721 0013144 184.1078 176.0036 14.90827661606127
YUBELEINY
1 32953U 08025A   19184.45365610  .00000021  00000-0  75656-4 0  9996
2 32953  82.5017 135.5858 0020455  95.2677 265.0738 12.43090295504144
PRISM (HITOMI)
1 33493U 09002B   19184.30394833  .00000053  00000-0  10208-4 0  9992
2 33493  98.1216 105.8137 0015877 131.4510 228.8077 14.96661786567331
KKS-1 (KISEKI)
1 33499U 09002H   19184.18758269  .00000052  00000-0  15733-4 0  9998
2 33499  98.3494  23.3569 0009686 153.1784 206.9926 14.75445081561367
SWISSCUBE
1 35932U 09051B   19183.75076280  .00000073  00000-0  27460-4 0  9997
2 35932  98.5891 350.1358 0008775 118.7193 241.4887 14.56288675518826
BEESAT
1 35933U 09051C   19184.43990929  .00000052  00000-0  22836-4 0  9998
2 35933  98.5917 352.6101 0006838 126.9659 233.2165 14.56377439519034
ITUPSAT 1
1 35935U 09051E   19184.43734700  .00000032  00000-0  18546-4 0  9994
2 35935  98.6027 352.8446 0009167 126.2263 233.9782 14.55536926518785
XIWANG-1 (HOPE-1)
1 36122U 09072B   19184.48063565 -.00000011  00000-0  81135-4 0  9997
2 36122 100.0725 186.1647 0007228 316.2677  43.7868 13.16350499458829
TISAT 1
1 36799U 10035E   19184.10992741  .00000316  00000-0  37990-4 0  9991
2 36799  98.1573 336.7412 0013148  43.9339 316.2921 14.91110210486915
JUGNU
1 37839U 11058B   19184.21110334  .00000296  00000-0  15729-4 0  9998
2 37839  19.9605 246.7349 0018950 126.3776 273.4302 14.12653029399311
SRMSAT
1 37841U 11058D   19183.73641096 +.00000306 +00000-0 +22973-4 0  9992
2 37841 019.9730 306.6779 0011913 351.3160 156.5714 14.10634484398583
M-CUBED/EXP-1 PRIME
1 37855U 11061F   19183.68991409  .00001013  00000-0  58395-4 0  9994
2 37855 101.7133  86.4731 0173767  35.3404 325.9181 15.05439806418884
HORYU 2
1 38340U 12025D   19184.49245950  .00000111  00000-0  24159-4 0  9997
2 38340  98.3279 223.5269 0012873  79.1061 281.1595 14.75723950383347
STRAND 1
1 39090U 13009E   19183.80029002  .00000011  00000-0  18999-4 0  9999
2 39090  98.4873  29.5217 0008008 244.2446 115.7914 14.35088466332416
SOMP
1 39134U 13015E   19184.49093920  .00000702  00000-0  41437-4 0  9991
2 39134  64.8635 332.4902 0031381 302.1602  57.6482 15.20173722342840
BEESAT 3
1 39135U 13015F   19183.91211822  .00000565  00000-0  37858-4 0  9990
2 39135  64.8695 352.8629 0022991 319.6776  40.2644 15.17482890342406
BEESAT 2
1 39136U 13015G   19184.48190777  .00000642  00000-0  42294-4 0  9995
2 39136  64.8704 354.8917 0019909 299.4514  60.4625 15.16912313342411
CUBEBUG 1
1 39153U 13018D   19184.22590132  .00000100  00000-0  20011-4 0  9990
2 39153  97.9791 282.2693 0017799 147.6184 212.6124 14.80570611333966
ZACUBE
1 39417U 13066B   19184.50019513  .00000134  00000-0  23283-4 0  9997
2 39417  97.5617 197.1694 0058542 347.0303  12.9401 14.81119507303237
TRITON 1
1 39427U 13066M   19184.45268313  .00000152  00000-0  31830-4 0  9993
2 39427  97.6767 160.9188 0115159 117.8332 243.4600 14.67845221300506
GOMX 1
1 39430U 13066Q   19184.43356868  .00000103  00000-0  27762-4 0  9993
2 39430  97.7474 140.0154 0150493 207.3145 152.0082 14.59256515298750
HUMSAT D
1 39433U 13066T   19184.09806484  .00000213  00000-0  26166-4 0  9991
2 39433  97.5525 231.0150 0029252 251.6427 108.1610 14.92198307305229
CUBEBUG 2
1 39440U 13066AA  19183.58210548 +.00000123 +00000-0 +23965-4 0  9996
2 39440 097.6020 181.1984 0081349 040.7384 319.9872 14.75857130300822
FUNCUBE 1
1 39444U 13066AE  19184.49258243  .00000184  00000-0  29041-4 0  9993
2 39444  97.5599 199.1223 0057501 340.8507  19.0545 14.81938930302120
UWE-3
1 39446U 13066AG  19184.44225666  .00000139  00000-0  25141-4 0  9990
2 39446  97.5808 189.0466 0070422  13.2524 347.0516 14.78392123301449
SPROUT
1 39770U 14029E   19184.29752582  .00000326  00000-0  42221-4 0  9991
2 39770  97.8852 287.4950 0010164  44.9316 315.2725 14.87348510277003
UNISAT 6
1 40012U 14033C   19184.20312080  .00000126  00000-0  26040-4 0  9992
2 40012  97.7560  50.1885 0059603  51.9460 308.7107 14.73981135270825
DUCHIFAT 1
1 40021U 14033M   19183.77496388  .00000127  00000-0  18874-4 0  9994
2 40021  97.9240 108.4153 0013279  10.6691 349.4806 14.90633570273641
QB50P1
1 40025U 14033R   19183.74563509  .00000146  00000-0  21540-4 0  9990
2 40025  97.9059 103.4075 0012999  19.8088 340.3631 14.88946691273419
CHUBUSAT 1
1 40300U 14070C   19184.44700323  .00000503  00000-0  24885-4 0  9994
2 40300  97.3270 258.2558 0020524   7.8166  53.8033 15.22094201258264
NUDT-PHONESAT
1 40900U 15049B   19184.50052950  .00001263  00000-0  56951-4 0  9993
2 40900  97.4369 193.6885 0014254 128.1886 359.3813 15.22804084209910
ZDPS 2A
1 40901U 15049C   19184.44743503  .00000345  00000-0  20386-4 0  9991
2 40901  97.4590 190.0569 0014348 145.9561 318.2589 15.17730365209477
ZDPS 2B
1 40902U 15049D   19184.48326758  .00000904  00000-0  48278-4 0  9996
2 40902  97.4533 187.5905 0014403 142.6060   9.3776 15.17551106209458
XW-2A
1 40903U 15049E   19184.51919258  .00001337  00000-0  33428-4 0  9996
2 40903  97.3366 227.3665 0015414  91.2655  46.4170 15.41870825212532
KAITUO 1A
1 40904U 15049F   19184.46974466  .00000462  00000-0  27940-4 0  9993
2 40904  97.4660 186.2251 0015120 150.8107   2.7492 15.15368400209230
OBJECT G
1 40905U 15049G   19184.42472444  .00000144  00000-0  11413-4 0  9994
2 40905  97.4706 183.7218 0016242 146.3024 347.3269 15.14292757209107
XW-2C
1 40906U 15049H   19184.39337140  .00000541  00000-0  31828-4 0  9997
2 40906  97.4669 186.2275 0015609 142.6599 325.2980 15.15679270209227
XW-2D
1 40907U 15049J   19184.36907506  .00000183  00000-0  13010-4 0  9999
2 40907  97.4651 185.8820 0015134 140.4220 326.9805 15.15864134209230
LILACSAT 2
1 40908U 15049K   19184.53397543  .00000520  00000-0  32348-4 0  9993
2 40908  97.4775 184.8819 0016614 146.1293 312.8505 15.13806008209057
XW-2F
1 40910U 15049M   19184.52442252  .00000517  00000-0  29272-4 0  9991
2 40910  97.4616 188.0357 0015880 133.1162  25.3197 15.17299434209261
XW-2B
1 40911U 15049N   19184.53296105  .00000632  00000-0  36477-4 0  9990
2 40911  97.4675 186.6925 0014935 140.4580 318.8986 15.15798039209154
KAITUO 1B
1 40912U 15049P   19184.39201120  .00000733  00000-0  37554-4 0  9997
2 40912  97.4492 191.5553 0016445 117.8509 350.3239 15.19611691209548
TIANWANG 1C (TW-1C)
1 40926U 15051B   19184.37444642  .00008383  00000-0  12224-3 0  9996
2 40926  97.1354 230.5306 0006710 328.9252  92.9207 15.55920976212447
